SPD2972 OERK-DTTA

Flight info

Callsign SPD2972
Flight time 4h 55m
Altitude 38000
Route LONIB T503 TAMRO N318 NEVOL R23 ODBUL Q163 GENEX L53 STEPA M1 KAVOS UM1 SIT UM978 DEMAG DCT ABNAT DCT EVIRA DCT SOPIR DCT SONAK UM978 ADRIL
Aircraft A346/H-SDE2E3FGHIJ3J4J5M1RWXY/LB1D1

Departure

Time 2026-04-27 13:45
Airport King Khalid International Airport (OERK)

Arrival

Time 2026-04-27 18:40
Airport Tunis Carthage International Airport (DTTA)
Time Latitude Longitude Altitude Speed Heading
2026-04-27 13:09 24.94925 46.71352 2060 ft 0 kts 240°
2026-04-27 13:31 24.94926 46.71354 2057 ft 2 kts 239°
2026-04-27 13:31 24.94940 46.71377 2054 ft 4 kts 233°
2026-04-27 13:31 24.94955 46.71401 2058 ft 4 kts 245°
2026-04-27 13:32 24.94958 46.71417 2060 ft 4 kts 276°
2026-04-27 13:32 24.94952 46.71440 2059 ft 4 kts 303°
2026-04-27 13:32 24.94935 46.71458 2055 ft 4 kts 329°
2026-04-27 13:32 24.94915 46.71470 2058 ft 1 kts 330°
2026-04-27 13:35 24.94920 46.71467 2060 ft 2 kts 330°
2026-04-27 13:35 24.94938 46.71455 2056 ft 4 kts 330°
2026-04-27 13:35 24.94972 46.71434 2060 ft 7 kts 330°
2026-04-27 13:35 24.95020 46.71403 2057 ft 9 kts 330°
2026-04-27 13:36 24.95081 46.71364 2057 ft 11 kts 330°
2026-04-27 13:36 24.95153 46.71319 2057 ft 13 kts 330°
2026-04-27 13:36 24.95224 46.71273 2054 ft 10 kts 330°
2026-04-27 13:36 24.95289 46.71232 2060 ft 12 kts 330°
2026-04-27 13:37 24.95365 46.71184 2058 ft 13 kts 330°
2026-04-27 13:37 24.95450 46.71131 2057 ft 14 kts 330°
2026-04-27 13:37 24.95540 46.71076 2054 ft 15 kts 330°
2026-04-27 13:37 24.95636 46.71015 2058 ft 17 kts 330°
2026-04-27 13:38 24.95739 46.70950 2057 ft 14 kts 330°
2026-04-27 13:38 24.95826 46.70896 2058 ft 15 kts 330°
2026-04-27 13:38 24.95918 46.70838 2060 ft 16 kts 330°
2026-04-27 13:38 24.96020 46.70774 2057 ft 18 kts 330°
2026-04-27 13:39 24.96133 46.70703 2057 ft 20 kts 330°
2026-04-27 13:39 24.96257 46.70624 2057 ft 21 kts 330°
2026-04-27 13:39 24.96358 46.70559 2058 ft 10 kts 330°
2026-04-27 13:39 24.96428 46.70543 2059 ft 11 kts 28°
2026-04-27 13:40 24.96485 46.70591 2056 ft 9 kts 26°
2026-04-27 13:40 24.96549 46.70580 2055 ft 11 kts 332°
2026-04-27 13:40 24.96620 46.70537 2053 ft 12 kts 331°
2026-04-27 13:40 24.96699 46.70487 2054 ft 14 kts 330°
2026-04-27 13:41 24.96785 46.70432 2056 ft 15 kts 330°
2026-04-27 13:41 24.96879 46.70373 2056 ft 16 kts 330°
2026-04-27 13:41 24.96982 46.70307 2058 ft 18 kts 330°
2026-04-27 13:41 24.97088 46.70239 2057 ft 18 kts 330°
2026-04-27 13:42 24.97205 46.70165 2058 ft 20 kts 330°
2026-04-27 13:42 24.97331 46.70085 2055 ft 22 kts 330°
2026-04-27 13:42 24.97439 46.70017 2056 ft 11 kts 329°
2026-04-27 13:42 24.97510 46.69980 2055 ft 12 kts 353°
2026-04-27 13:43 24.97578 46.70032 2057 ft 14 kts 57°
2026-04-27 13:43 24.97633 46.70137 2048 ft 17 kts 60°
2026-04-27 13:43 24.97634 46.70231 2047 ft 13 kts 131°
2026-04-27 13:43 24.97590 46.70266 2050 ft 0 kts 149°
2026-04-27 13:44 24.97488 46.70332 2050 ft 48 kts 150°
2026-04-27 13:44 24.96986 46.70648 2050 ft 115 kts 150°
2026-04-27 13:44 24.96118 46.71199 2045 ft 169 kts 149°
2026-04-27 13:44 24.95009 46.71936 2272 ft 194 kts 151°
2026-04-27 13:45 24.93834 46.72683 2967 ft 195 kts 150°
2026-04-27 13:45 24.92742 46.73548 3764 ft 190 kts 141°
2026-04-27 13:45 24.91781 46.74501 4338 ft 186 kts 139°
2026-04-27 13:45 24.90796 46.75500 4644 ft 200 kts 140°
2026-04-27 13:46 24.89718 46.76565 4932 ft 216 kts 139°
2026-04-27 13:46 24.88800 46.77962 5207 ft 239 kts 115°
2026-04-27 13:46 24.88537 46.79852 5465 ft 266 kts 86°
2026-04-27 13:46 24.89163 46.81857 5824 ft 287 kts 67°
2026-04-27 13:47 24.90064 46.83848 6431 ft 292 kts 66°
2026-04-27 13:47 24.90982 46.85863 7089 ft 296 kts 66°
2026-04-27 13:47 24.91891 46.87885 7743 ft 299 kts 65°
2026-04-27 13:47 24.92815 46.89954 8435 ft 303 kts 65°
2026-04-27 13:48 24.93751 46.92051 9107 ft 307 kts 64°
2026-04-27 13:48 24.95004 46.93971 9746 ft 312 kts 37°
2026-04-27 13:48 24.96938 46.94981 10350 ft 311 kts
2026-04-27 13:48 24.99091 46.94822 10748 ft 316 kts 336°
2026-04-27 13:49 25.00932 46.93488 11042 ft 324 kts 308°
2026-04-27 13:49 25.02309 46.91459 11393 ft 338 kts 304°
2026-04-27 13:49 25.03789 46.89350 11692 ft 355 kts 306°
2026-04-27 13:49 25.05391 46.87189 11985 ft 372 kts 307°
2026-04-27 13:50 25.07088 46.84971 12440 ft 382 kts 308°
2026-04-27 13:50 25.08802 46.82765 13158 ft 384 kts 308°
2026-04-27 13:50 25.10558 46.80524 13914 ft 386 kts 308°
2026-04-27 13:50 25.12328 46.78275 14581 ft 389 kts 308°
2026-04-27 13:51 25.14110 46.76014 15229 ft 392 kts 308°
2026-04-27 13:51 25.15910 46.73732 15882 ft 395 kts 308°
2026-04-27 13:51 25.17726 46.71429 16528 ft 398 kts 307°
2026-04-27 13:51 25.19561 46.69102 17183 ft 402 kts 307°
2026-04-27 13:52 25.21403 46.66766 17813 ft 405 kts 307°
2026-04-27 13:52 25.23264 46.64406 18415 ft 408 kts 307°
2026-04-27 13:52 25.25135 46.62033 18969 ft 410 kts 307°
2026-04-27 13:52 25.27020 46.59643 19546 ft 412 kts 306°
2026-04-27 13:53 25.30807 46.54833 20681 ft 417 kts 306°
2026-04-27 13:53 25.32714 46.52409 21240 ft 419 kts 305°
2026-04-27 13:53 25.34631 46.49968 21797 ft 421 kts 305°
2026-04-27 13:54 25.36534 46.47544 22316 ft 423 kts 305°
2026-04-27 13:54 25.38474 46.45071 22833 ft 426 kts 305°
2026-04-27 13:54 25.40421 46.42590 23376 ft 428 kts 305°
2026-04-27 13:54 25.42379 46.40091 23783 ft 431 kts 305°
2026-04-27 13:55 25.44350 46.37575 24211 ft 433 kts 305°
2026-04-27 13:55 25.46329 46.35049 24640 ft 435 kts 305°
2026-04-27 13:55 25.48322 46.32503 25061 ft 438 kts 304°
2026-04-27 13:55 25.50321 46.29949 25480 ft 440 kts 304°
2026-04-27 13:56 25.52331 46.27380 25906 ft 442 kts 304°
2026-04-27 13:56 25.54353 46.24794 26292 ft 445 kts 304°
2026-04-27 13:56 25.56388 46.22190 26687 ft 448 kts 304°
2026-04-27 13:56 25.58436 46.19567 27071 ft 451 kts 304°
2026-04-27 13:57 25.60494 46.16930 27457 ft 454 kts 304°
2026-04-27 13:57 25.62569 46.14271 27856 ft 456 kts 304°
2026-04-27 13:57 25.64622 46.11638 28240 ft 459 kts 304°
2026-04-27 13:57 25.66719 46.08948 28701 ft 460 kts 304°
2026-04-27 13:58 25.68807 46.06270 29297 ft 457 kts 303°
2026-04-27 13:58 25.70887 46.03604 29919 ft 455 kts 303°
2026-04-27 13:58 25.72952 46.00951 30423 ft 453 kts 303°
2026-04-27 13:58 25.75011 45.98303 30933 ft 450 kts 303°
2026-04-27 13:59 25.77054 45.95674 31459 ft 447 kts 303°
2026-04-27 13:59 25.79083 45.93060 31983 ft 444 kts 303°
2026-04-27 13:59 25.81097 45.90465 32527 ft 441 kts 303°
2026-04-27 13:59 25.83064 45.87930 33017 ft 438 kts 303°
2026-04-27 14:00 25.85075 45.85337 33529 ft 435 kts 302°
2026-04-27 14:00 25.87017 45.82831 33982 ft 432 kts 302°
2026-04-27 14:00 25.88969 45.80309 34359 ft 430 kts 302°
2026-04-27 14:00 25.90916 45.77791 34697 ft 428 kts 303°
2026-04-27 14:01 25.92859 45.75276 35013 ft 428 kts 303°
2026-04-27 14:01 25.94796 45.72768 35316 ft 427 kts 303°
2026-04-27 14:01 25.96728 45.70267 35601 ft 426 kts 303°
2026-04-27 14:01 25.98661 45.67765 35885 ft 425 kts 303°
2026-04-27 14:02 26.00585 45.65272 36144 ft 425 kts 303°
2026-04-27 14:02 26.02507 45.62781 36373 ft 425 kts 303°
2026-04-27 14:02 26.04434 45.60281 36586 ft 425 kts 303°
2026-04-27 14:02 26.06364 45.57776 36775 ft 426 kts 303°
2026-04-27 14:03 26.08295 45.55270 36987 ft 426 kts 303°
2026-04-27 14:03 26.10228 45.52759 37198 ft 427 kts 303°
2026-04-27 14:03 26.12164 45.50242 37413 ft 427 kts 303°
2026-04-27 14:03 26.14097 45.47728 37630 ft 428 kts 303°
2026-04-27 14:04 26.16059 45.45228 37818 ft 430 kts 305°
2026-04-27 14:04 26.20313 45.40466 37884 ft 435 kts 308°
2026-04-27 14:05 26.24727 45.35827 37865 ft 435 kts 308°
2026-04-27 14:05 26.29135 45.31199 37880 ft 435 kts 308°
2026-04-27 14:06 26.33528 45.26588 37873 ft 436 kts 308°
2026-04-27 14:06 26.37949 45.21952 37865 ft 436 kts 308°
2026-04-27 14:07 26.42372 45.17309 37872 ft 436 kts 308°
2026-04-27 14:07 26.46792 45.12665 37864 ft 436 kts 308°
2026-04-27 14:08 26.51211 45.08016 37869 ft 436 kts 308°
2026-04-27 14:08 26.55635 45.03357 37865 ft 437 kts 308°
2026-04-27 14:09 26.60055 44.98696 37864 ft 437 kts 308°
2026-04-27 14:09 26.64476 44.94030 37854 ft 437 kts 308°
2026-04-27 14:10 26.68873 44.89386 37851 ft 437 kts 308°
2026-04-27 14:10 26.73297 44.84710 37846 ft 437 kts 308°
2026-04-27 14:11 26.77715 44.80032 37837 ft 437 kts 308°
2026-04-27 14:11 26.82126 44.75347 37833 ft 437 kts 308°
2026-04-27 14:12 26.86534 44.70659 37828 ft 437 kts 308°
2026-04-27 14:12 26.90944 44.65966 37816 ft 437 kts 308°
2026-04-27 14:13 26.95352 44.61271 37815 ft 437 kts 307°
2026-04-27 14:13 26.99019 44.57360 37812 ft 437 kts 307°
2026-04-27 14:14 27.03418 44.52657 37808 ft 436 kts 307°
2026-04-27 14:14 27.07815 44.47950 37798 ft 436 kts 307°
2026-04-27 14:15 27.12211 44.43238 37804 ft 436 kts 307°
2026-04-27 14:15 27.16567 44.38566 37802 ft 436 kts 307°
2026-04-27 14:16 27.20950 44.33864 37801 ft 435 kts 307°
2026-04-27 14:16 27.25334 44.29157 37801 ft 435 kts 307°
2026-04-27 14:17 27.29719 44.24446 37798 ft 435 kts 307°
2026-04-27 14:17 27.34100 44.19734 37797 ft 435 kts 307°
2026-04-27 14:18 27.38479 44.15018 37793 ft 435 kts 307°
2026-04-27 14:18 27.42857 44.10299 37801 ft 435 kts 307°
2026-04-27 14:19 27.47236 44.05573 37794 ft 435 kts 307°
2026-04-27 14:19 27.51583 44.00875 37798 ft 436 kts 307°
2026-04-27 14:20 27.55968 43.96132 37799 ft 436 kts 306°
2026-04-27 14:20 27.60350 43.91386 37798 ft 436 kts 306°
2026-04-27 14:21 27.64708 43.86661 37800 ft 437 kts 306°
2026-04-27 14:21 27.69087 43.81907 37801 ft 437 kts 306°
2026-04-27 14:22 27.73469 43.77145 37803 ft 437 kts 306°
2026-04-27 14:22 27.77853 43.72377 37801 ft 437 kts 306°
2026-04-27 14:23 27.82237 43.67601 37801 ft 437 kts 306°
2026-04-27 14:23 27.86501 43.62729 37803 ft 434 kts 303°
2026-04-27 14:24 27.90648 43.57739 37806 ft 434 kts 303°
2026-04-27 14:24 27.94760 43.52781 37805 ft 434 kts 303°
2026-04-27 14:25 27.98895 43.47789 37806 ft 435 kts 303°
2026-04-27 14:25 28.03039 43.42782 37804 ft 435 kts 303°
2026-04-27 14:26 28.07180 43.37774 37809 ft 435 kts 303°
2026-04-27 14:26 28.11326 43.32754 37803 ft 436 kts 303°
2026-04-27 14:27 28.15472 43.27728 37810 ft 436 kts 303°
2026-04-27 14:27 28.19618 43.22695 37813 ft 436 kts 303°
2026-04-27 14:28 28.23766 43.17655 37812 ft 437 kts 303°
2026-04-27 14:28 28.27884 43.12645 37815 ft 437 kts 303°
2026-04-27 14:29 28.32034 43.07590 37819 ft 437 kts 303°
2026-04-27 14:29 28.36178 43.02535 37817 ft 437 kts 303°
2026-04-27 14:30 28.40320 42.97478 37815 ft 437 kts 303°
2026-04-27 14:30 28.44459 42.92417 37823 ft 437 kts 303°
2026-04-27 14:31 28.48572 42.87382 37823 ft 437 kts 303°
2026-04-27 14:31 28.52711 42.82310 37826 ft 437 kts 303°
2026-04-27 14:32 28.56841 42.77243 37828 ft 437 kts 303°
2026-04-27 14:32 28.60978 42.72159 37831 ft 437 kts 303°
2026-04-27 14:33 28.64882 42.66917 37836 ft 430 kts 298°
2026-04-27 14:33 28.68338 42.61397 37828 ft 427 kts 295°
2026-04-27 14:34 28.71709 42.55817 37836 ft 427 kts 295°
2026-04-27 14:34 28.75078 42.50225 37837 ft 427 kts 295°
2026-04-27 14:35 28.78421 42.44669 37838 ft 427 kts 295°
2026-04-27 14:35 28.81788 42.39064 37838 ft 427 kts 295°
2026-04-27 14:36 28.85150 42.33460 37837 ft 428 kts 295°
2026-04-27 14:36 28.88513 42.27848 37838 ft 428 kts 295°
2026-04-27 14:37 28.91878 42.22222 37838 ft 428 kts 295°
2026-04-27 14:37 28.95237 42.16601 37838 ft 428 kts 295°
2026-04-27 14:38 28.98598 42.10970 37839 ft 428 kts 295°
2026-04-27 14:38 29.01933 42.05373 37842 ft 428 kts 295°
2026-04-27 14:39 29.05289 41.99732 37846 ft 429 kts 295°
2026-04-27 14:39 29.08649 41.94079 37845 ft 429 kts 295°
2026-04-27 14:40 29.12007 41.88421 37851 ft 429 kts 295°
2026-04-27 14:40 29.15361 41.82761 37852 ft 430 kts 295°
2026-04-27 14:41 29.18718 41.77089 37849 ft 430 kts 295°
2026-04-27 14:41 29.22075 41.71409 37846 ft 430 kts 295°
2026-04-27 14:42 29.25406 41.65767 37854 ft 431 kts 295°
2026-04-27 14:42 29.28761 41.60075 37853 ft 431 kts 295°
2026-04-27 14:43 29.32119 41.54370 37850 ft 431 kts 295°
2026-04-27 14:43 29.35482 41.48649 37843 ft 432 kts 295°
2026-04-27 14:44 29.38842 41.42925 37850 ft 432 kts 295°
2026-04-27 14:44 29.42203 41.37192 37860 ft 433 kts 295°
2026-04-27 14:45 29.45567 41.31446 37857 ft 433 kts 295°
2026-04-27 14:45 29.48930 41.25692 37858 ft 434 kts 295°
2026-04-27 14:46 29.52294 41.19930 37860 ft 434 kts 295°
2026-04-27 14:46 29.55663 41.14150 37862 ft 435 kts 295°
2026-04-27 14:47 29.59037 41.08354 37862 ft 436 kts 295°
2026-04-27 14:47 29.62387 41.02592 37859 ft 436 kts 295°
2026-04-27 14:48 29.65762 40.96778 37869 ft 436 kts 295°
2026-04-27 14:48 29.70819 40.88051 37870 ft 437 kts 295°
2026-04-27 14:49 29.74193 40.82217 37872 ft 437 kts 295°
2026-04-27 14:49 29.77560 40.76388 37866 ft 437 kts 295°
2026-04-27 14:50 29.80925 40.70554 37868 ft 437 kts 295°
2026-04-27 14:50 29.84263 40.64759 37864 ft 436 kts 295°
2026-04-27 14:51 29.87624 40.58913 37867 ft 437 kts 295°
2026-04-27 14:51 29.90415 40.54053 37866 ft 437 kts 295°
2026-04-27 14:52 29.94335 40.47217 37864 ft 437 kts 295°
2026-04-27 14:52 29.97693 40.41354 37861 ft 437 kts 295°
2026-04-27 14:53 30.01052 40.35479 37860 ft 438 kts 295°
2026-04-27 14:53 30.04411 40.29597 37860 ft 438 kts 295°
2026-04-27 14:54 30.07745 40.23749 37859 ft 439 kts 295°
2026-04-27 14:54 30.11107 40.17844 37855 ft 439 kts 295°
2026-04-27 14:55 30.14470 40.11928 37853 ft 440 kts 295°
2026-04-27 14:55 30.17839 40.05994 37849 ft 441 kts 295°
2026-04-27 14:56 30.21206 40.00053 37847 ft 441 kts 295°
2026-04-27 14:56 30.24570 39.94109 37848 ft 441 kts 295°
2026-04-27 14:57 30.27919 39.88185 37843 ft 442 kts 295°
2026-04-27 14:57 30.31286 39.82221 37842 ft 443 kts 295°
2026-04-27 14:58 30.34659 39.76234 37842 ft 443 kts 295°
2026-04-27 14:58 30.38305 39.70410 37839 ft 450 kts 302°
2026-04-27 14:59 30.42615 39.65059 37837 ft 458 kts 308°
2026-04-27 14:59 30.47576 39.60285 37835 ft 467 kts 316°
2026-04-27 15:00 30.53087 39.56156 37832 ft 473 kts 320°
2026-04-27 15:00 30.57771 39.52885 37818 ft 473 kts 321°
2026-04-27 15:01 30.63417 39.48946 37826 ft 473 kts 321°
2026-04-27 15:01 30.69968 39.44360 37828 ft 473 kts 321°
2026-04-27 15:02 30.74688 39.41048 37826 ft 473 kts 321°
2026-04-27 15:02 30.80322 39.37088 37823 ft 473 kts 321°
2026-04-27 15:03 30.85918 39.33152 37834 ft 473 kts 321°
2026-04-27 15:03 30.91545 39.29187 37843 ft 472 kts 321°
2026-04-27 15:04 30.97084 39.25092 37838 ft 467 kts 316°
2026-04-27 15:04 31.01826 39.20066 37847 ft 456 kts 305°
2026-04-27 15:05 31.05555 39.14171 37851 ft 447 kts 295°
2026-04-27 15:05 31.08201 39.07674 37849 ft 441 kts 286°
2026-04-27 15:06 31.10295 39.00931 37849 ft 441 kts 285°
2026-04-27 15:06 31.12356 38.94170 37857 ft 442 kts 285°
2026-04-27 15:07 31.14418 38.87396 37851 ft 442 kts 285°
2026-04-27 15:07 31.16480 38.80612 37846 ft 443 kts 285°
2026-04-27 15:08 31.18538 38.73827 37853 ft 443 kts 285°
2026-04-27 15:08 31.20593 38.67039 37852 ft 443 kts 285°
2026-04-27 15:09 31.22649 38.60238 37860 ft 443 kts 285°
2026-04-27 15:09 31.24686 38.53483 37854 ft 443 kts 285°
2026-04-27 15:10 31.26738 38.46668 37857 ft 443 kts 285°
2026-04-27 15:10 31.28786 38.39849 37860 ft 444 kts 285°
2026-04-27 15:11 31.30832 38.33023 37862 ft 444 kts 285°
2026-04-27 15:11 31.32875 38.26192 37861 ft 444 kts 285°
2026-04-27 15:12 31.34901 38.19403 37862 ft 445 kts 285°
2026-04-27 15:12 31.36940 38.12557 37860 ft 445 kts 285°
2026-04-27 15:13 31.38975 38.05705 37863 ft 445 kts 285°
2026-04-27 15:13 31.41008 37.98849 37866 ft 445 kts 285°
2026-04-27 15:14 31.43039 37.91985 37865 ft 446 kts 285°
2026-04-27 15:14 31.45068 37.85108 37859 ft 446 kts 285°
2026-04-27 15:15 31.47004 37.78206 37860 ft 444 kts 282°
2026-04-27 15:15 31.48412 37.71162 37861 ft 442 kts 277°
2026-04-27 15:16 31.49233 37.64029 37859 ft 440 kts 272°
2026-04-27 15:16 31.49472 37.56855 37862 ft 439 kts 268°
2026-04-27 15:17 31.49476 37.49688 37867 ft 439 kts 268°
2026-04-27 15:17 31.49467 37.42571 37871 ft 439 kts 268°
2026-04-27 15:18 31.49451 37.35413 37876 ft 439 kts 268°
2026-04-27 15:18 31.49431 37.28247 37876 ft 439 kts 268°
2026-04-27 15:19 31.49405 37.21075 37874 ft 439 kts 268°
2026-04-27 15:19 31.49376 37.13897 37873 ft 439 kts 269°
2026-04-27 15:20 31.49655 37.06773 37873 ft 440 kts 274°
2026-04-27 15:20 31.50506 36.99654 37877 ft 441 kts 278°
2026-04-27 15:21 31.51934 36.92627 37879 ft 443 kts 283°
2026-04-27 15:21 31.53846 36.85740 37891 ft 444 kts 286°
2026-04-27 15:22 31.55841 36.78876 37900 ft 444 kts 286°
2026-04-27 15:22 31.57835 36.72011 37906 ft 444 kts 286°
2026-04-27 15:23 31.59810 36.65183 37909 ft 444 kts 286°
2026-04-27 15:23 31.61797 36.58308 37921 ft 444 kts 286°
2026-04-27 15:24 31.63785 36.51440 37930 ft 444 kts 286°
2026-04-27 15:24 31.65766 36.44564 37937 ft 444 kts 286°
2026-04-27 15:25 31.67734 36.37680 37953 ft 444 kts 286°
2026-04-27 15:25 31.69699 36.30786 37977 ft 444 kts 286°
2026-04-27 15:26 31.71659 36.23896 37992 ft 444 kts 286°
2026-04-27 15:26 31.73412 36.16924 38003 ft 443 kts 282°
2026-04-27 15:27 31.74584 36.09826 38013 ft 442 kts 277°
2026-04-27 15:27 31.75381 36.02696 38013 ft 442 kts 276°
2026-04-27 15:28 31.76162 35.95519 38013 ft 442 kts 276°
2026-04-27 15:28 31.76938 35.88315 38013 ft 442 kts 276°
2026-04-27 15:29 31.77707 35.81133 38003 ft 442 kts 276°
2026-04-27 15:29 31.78467 35.74002 37991 ft 442 kts 276°
2026-04-27 15:30 31.79241 35.66825 37975 ft 441 kts 277°
2026-04-27 15:30 31.80410 35.59723 37966 ft 442 kts 282°
2026-04-27 15:31 31.82068 35.52745 37963 ft 443 kts 285°
2026-04-27 15:31 31.84018 35.45859 37966 ft 443 kts 288°
2026-04-27 15:32 31.86077 35.39004 37963 ft 443 kts 288°
2026-04-27 15:32 31.88127 35.32163 37965 ft 443 kts 287°
2026-04-27 15:33 31.90161 35.25343 37958 ft 443 kts 287°
2026-04-27 15:33 31.92191 35.18490 37959 ft 443 kts 287°
2026-04-27 15:34 31.94211 35.11640 37960 ft 443 kts 287°
2026-04-27 15:34 31.96242 35.04769 37960 ft 442 kts 287°
2026-04-27 15:35 31.98262 34.97917 37959 ft 442 kts 287°
2026-04-27 15:35 32.00046 34.90981 37957 ft 442 kts 283°
2026-04-27 15:36 32.01256 34.83874 37958 ft 441 kts 278°
2026-04-27 15:36 32.01890 34.76677 37958 ft 441 kts 274°
2026-04-27 15:37 32.02313 34.69462 37958 ft 441 kts 274°
2026-04-27 15:37 32.02719 34.62240 37962 ft 441 kts 274°
2026-04-27 15:38 32.03108 34.55014 37960 ft 441 kts 274°
2026-04-27 15:38 32.03503 34.47837 37964 ft 441 kts 274°
2026-04-27 15:39 32.03913 34.40607 37964 ft 441 kts 274°
2026-04-27 15:39 32.04385 34.33388 37967 ft 440 kts 277°
2026-04-27 15:40 32.05509 34.26278 37964 ft 441 kts 283°
2026-04-27 15:40 32.07413 34.19386 37966 ft 442 kts 290°
2026-04-27 15:41 32.10050 34.12868 37970 ft 444 kts 297°
2026-04-27 15:41 32.13197 34.06590 37970 ft 444 kts 298°
2026-04-27 15:42 32.16370 34.00320 37958 ft 444 kts 297°
2026-04-27 15:42 32.19189 33.93824 37974 ft 443 kts 294°
2026-04-27 15:43 32.21897 33.87280 37979 ft 443 kts 294°
2026-04-27 15:43 32.24599 33.80730 37969 ft 443 kts 294°
2026-04-27 15:44 32.27301 33.74175 37979 ft 443 kts 294°
2026-04-27 15:44 32.29977 33.67669 37971 ft 443 kts 294°
2026-04-27 15:45 32.32673 33.61105 37984 ft 443 kts 294°
2026-04-27 15:45 32.35364 33.54540 37972 ft 442 kts 294°
2026-04-27 15:46 32.38047 33.47981 37981 ft 442 kts 294°
2026-04-27 15:46 32.40729 33.41413 37974 ft 442 kts 294°
2026-04-27 15:47 32.43403 33.34854 37969 ft 442 kts 294°
2026-04-27 15:47 32.45624 33.29396 37976 ft 442 kts 294°
2026-04-27 15:48 32.48294 33.22825 37983 ft 442 kts 294°
2026-04-27 15:49 32.52292 33.12960 37978 ft 442 kts 294°
2026-04-27 15:49 32.54955 33.06373 37978 ft 442 kts 294°
2026-04-27 15:50 32.57611 32.99791 37976 ft 442 kts 294°
2026-04-27 15:50 32.60268 32.93196 37980 ft 442 kts 294°
2026-04-27 15:51 32.62920 32.86601 37976 ft 442 kts 294°
2026-04-27 15:51 32.65553 32.80040 37976 ft 442 kts 294°
2026-04-27 15:52 32.68197 32.73437 37972 ft 442 kts 294°
2026-04-27 15:52 32.70842 32.66823 37980 ft 443 kts 294°
2026-04-27 15:53 32.73481 32.60211 37978 ft 442 kts 294°
2026-04-27 15:53 32.76120 32.53585 37975 ft 443 kts 294°
2026-04-27 15:54 32.78755 32.46956 37978 ft 443 kts 294°
2026-04-27 15:54 32.81370 32.40365 37982 ft 443 kts 294°
2026-04-27 15:55 32.83996 32.33731 37981 ft 443 kts 294°
2026-04-27 15:55 32.86620 32.27087 37985 ft 443 kts 294°
2026-04-27 15:56 32.89238 32.20449 37985 ft 443 kts 294°
2026-04-27 15:56 32.91857 32.13796 37987 ft 443 kts 294°
2026-04-27 15:57 32.94469 32.07147 37986 ft 443 kts 294°
2026-04-27 15:57 32.97077 32.00495 37982 ft 443 kts 294°
2026-04-27 15:58 32.99683 31.93835 37987 ft 443 kts 294°
2026-04-27 15:58 33.02269 31.87215 37988 ft 443 kts 294°
2026-04-27 15:59 33.04868 31.80549 37988 ft 443 kts 294°
2026-04-27 15:59 33.07468 31.73866 37989 ft 443 kts 294°
2026-04-27 16:00 33.10060 31.67191 37983 ft 442 kts 294°
2026-04-27 16:00 33.12629 31.60562 37978 ft 442 kts 294°
2026-04-27 16:01 33.15212 31.53885 37981 ft 442 kts 294°
2026-04-27 16:01 33.17791 31.47204 37983 ft 442 kts 294°
2026-04-27 16:02 33.20362 31.40529 37986 ft 442 kts 294°
2026-04-27 16:02 33.22933 31.33845 37983 ft 442 kts 294°
2026-04-27 16:03 33.25499 31.27157 37979 ft 442 kts 294°
2026-04-27 16:03 33.28059 31.20473 37986 ft 442 kts 294°
2026-04-27 16:04 33.30616 31.13784 37992 ft 442 kts 294°
2026-04-27 16:04 33.33170 31.07088 37985 ft 442 kts 294°
2026-04-27 16:05 33.35723 31.00384 37987 ft 442 kts 293°
2026-04-27 16:05 33.38256 30.93717 37985 ft 442 kts 293°
2026-04-27 16:06 33.40803 30.86999 37989 ft 442 kts 293°
2026-04-27 16:06 33.43349 30.80273 37986 ft 442 kts 293°
2026-04-27 16:07 33.45891 30.73541 37990 ft 442 kts 293°
2026-04-27 16:07 33.48427 30.66811 37988 ft 442 kts 293°
2026-04-27 16:08 33.50959 30.60080 37991 ft 443 kts 293°
2026-04-27 16:08 33.53473 30.53383 37995 ft 443 kts 293°
2026-04-27 16:09 33.56001 30.46636 37991 ft 443 kts 293°
2026-04-27 16:09 33.59786 30.36505 37991 ft 443 kts 293°
2026-04-27 16:10 33.64822 30.22981 37990 ft 443 kts 293°
2026-04-27 16:11 33.68501 30.12770 37994 ft 443 kts 290°
2026-04-27 16:12 33.71671 30.02372 37996 ft 443 kts 289°
2026-04-27 16:13 33.74861 29.91924 37996 ft 443 kts 289°
2026-04-27 16:13 33.78058 29.81484 38002 ft 443 kts 289°
2026-04-27 16:14 33.82313 29.67560 38001 ft 443 kts 289°
2026-04-27 16:15 33.86547 29.53648 38010 ft 443 kts 289°
2026-04-27 16:16 33.90776 29.39683 38001 ft 443 kts 289°
2026-04-27 16:17 33.94983 29.25728 38006 ft 444 kts 289°
2026-04-27 16:18 33.99189 29.11708 38011 ft 444 kts 289°
2026-04-27 16:19 34.01285 29.04696 38012 ft 444 kts 289°
2026-04-27 16:20 34.05456 28.90694 38015 ft 444 kts 289°
2026-04-27 16:21 34.08581 28.80159 38016 ft 444 kts 289°
2026-04-27 16:22 34.12733 28.66100 38020 ft 444 kts 289°
2026-04-27 16:22 34.15837 28.55550 38026 ft 444 kts 289°
2026-04-27 16:23 34.18932 28.44988 38020 ft 444 kts 289°
2026-04-27 16:24 34.20976 28.37992 38025 ft 444 kts 289°
2026-04-27 16:25 34.25081 28.23888 38028 ft 444 kts 289°
2026-04-27 16:26 34.29165 28.09791 38027 ft 443 kts 289°
2026-04-27 16:27 34.33191 27.95828 38025 ft 435 kts 289°
2026-04-27 16:28 34.38146 27.78543 38037 ft 434 kts 289°
2026-04-27 16:29 34.43056 27.61310 38034 ft 433 kts 289°
2026-04-27 16:30 34.46979 27.47465 38039 ft 433 kts 289°
2026-04-27 16:31 34.51859 27.30149 38042 ft 433 kts 289°
2026-04-27 16:32 34.54762 27.19796 38040 ft 433 kts 289°
2026-04-27 16:33 34.57671 27.09382 38044 ft 434 kts 289°
2026-04-27 16:33 34.59279 27.03611 38045 ft 434 kts 289°
2026-04-27 16:34 34.61211 26.96659 38042 ft 434 kts 289°
2026-04-27 16:34 34.63140 26.89699 38045 ft 434 kts 289°
2026-04-27 16:35 34.65065 26.82739 38047 ft 434 kts 289°
2026-04-27 16:36 34.67930 26.72346 38049 ft 434 kts 289°
2026-04-27 16:36 34.69847 26.65370 38053 ft 434 kts 289°
2026-04-27 16:37 34.71758 26.58398 38049 ft 434 kts 289°
2026-04-27 16:37 34.73665 26.51424 38049 ft 434 kts 289°
2026-04-27 16:38 34.75567 26.44448 38055 ft 434 kts 289°
2026-04-27 16:38 34.77464 26.37474 38054 ft 433 kts 288°
2026-04-27 16:39 34.79356 26.30501 38051 ft 433 kts 288°
2026-04-27 16:39 34.81243 26.23526 38050 ft 433 kts 288°
2026-04-27 16:40 34.83114 26.16597 38051 ft 433 kts 288°
2026-04-27 16:40 34.84992 26.09621 38057 ft 433 kts 288°
2026-04-27 16:41 34.86870 26.02627 38055 ft 433 kts 288°
2026-04-27 16:41 34.88739 25.95651 38060 ft 433 kts 288°
2026-04-27 16:42 34.90606 25.88659 38059 ft 433 kts 288°
2026-04-27 16:42 34.92469 25.81671 38056 ft 433 kts 288°
2026-04-27 16:43 34.94326 25.74685 38063 ft 433 kts 288°
2026-04-27 16:43 34.96181 25.67685 38065 ft 433 kts 288°
2026-04-27 16:44 34.98031 25.60692 38069 ft 433 kts 288°
2026-04-27 16:44 34.99877 25.53692 38067 ft 433 kts 288°
2026-04-27 16:45 35.01721 25.46676 38076 ft 433 kts 288°
2026-04-27 16:45 35.03549 25.39707 38077 ft 433 kts 288°
2026-04-27 16:46 35.05384 25.32694 38077 ft 433 kts 288°
2026-04-27 16:46 35.07218 25.25666 38086 ft 433 kts 288°
2026-04-27 16:47 35.09044 25.18649 38088 ft 433 kts 288°
2026-04-27 16:47 35.10869 25.11618 38086 ft 434 kts 288°
2026-04-27 16:48 35.12691 25.04575 38085 ft 434 kts 288°
2026-04-27 16:48 35.14375 24.97486 38087 ft 434 kts 284°
2026-04-27 16:49 35.15894 24.86539 38090 ft 436 kts 278°
2026-04-27 16:49 35.16705 24.79198 38085 ft 435 kts 279°
2026-04-27 16:50 35.17542 24.71857 38088 ft 435 kts 279°
2026-04-27 16:50 35.18366 24.64528 38086 ft 435 kts 278°
2026-04-27 16:51 35.19177 24.57192 38076 ft 434 kts 278°
2026-04-27 16:51 35.19979 24.49897 38087 ft 434 kts 278°
2026-04-27 16:52 35.20779 24.42568 38082 ft 434 kts 278°
2026-04-27 16:52 35.21575 24.35222 38088 ft 435 kts 278°
2026-04-27 16:53 35.22366 24.27877 38086 ft 435 kts 278°
2026-04-27 16:53 35.23154 24.20539 38082 ft 435 kts 278°
2026-04-27 16:54 35.23936 24.13189 38088 ft 435 kts 278°
2026-04-27 16:54 35.24710 24.05888 38085 ft 434 kts 278°
2026-04-27 16:55 35.25484 23.98534 38084 ft 435 kts 278°
2026-04-27 16:55 35.26252 23.91185 38086 ft 434 kts 278°
2026-04-27 16:56 35.27018 23.83827 38082 ft 435 kts 278°
2026-04-27 16:56 35.27778 23.76480 38088 ft 434 kts 278°
2026-04-27 16:57 35.28533 23.69135 38082 ft 434 kts 278°
2026-04-27 16:57 35.29279 23.61827 38084 ft 434 kts 278°
2026-04-27 16:58 35.30026 23.54475 38087 ft 434 kts 278°
2026-04-27 16:58 35.30767 23.47130 38093 ft 434 kts 277°
2026-04-27 16:59 35.31505 23.39780 38092 ft 434 kts 277°
2026-04-27 16:59 35.32237 23.32433 38094 ft 434 kts 277°
2026-04-27 17:00 35.33326 23.21410 38097 ft 434 kts 277°
2026-04-27 17:01 35.34043 23.14111 38101 ft 434 kts 277°
2026-04-27 17:01 35.34759 23.06761 38101 ft 434 kts 277°
2026-04-27 17:02 35.35473 22.99390 38103 ft 433 kts 277°
2026-04-27 17:02 35.36180 22.92042 38105 ft 433 kts 277°
2026-04-27 17:03 35.36883 22.84695 38109 ft 433 kts 277°
2026-04-27 17:03 35.37581 22.77344 38111 ft 433 kts 277°
2026-04-27 17:04 35.38275 22.69996 38115 ft 433 kts 277°
2026-04-27 17:04 35.38963 22.62659 38116 ft 433 kts 277°
2026-04-27 17:05 35.39647 22.55309 38117 ft 433 kts 277°
2026-04-27 17:05 35.40325 22.47970 38120 ft 433 kts 277°
2026-04-27 17:06 35.40995 22.40671 38119 ft 433 kts 277°
2026-04-27 17:06 35.41665 22.33330 38120 ft 433 kts 276°
2026-04-27 17:07 35.42331 22.25985 38118 ft 432 kts 276°
2026-04-27 17:07 35.42992 22.18636 38124 ft 432 kts 276°
2026-04-27 17:08 35.43649 22.11293 38121 ft 432 kts 276°
2026-04-27 17:08 35.44297 22.03997 38121 ft 432 kts 276°
2026-04-27 17:09 35.44943 21.96667 38126 ft 432 kts 276°
2026-04-27 17:09 35.45587 21.89318 38127 ft 432 kts 276°
2026-04-27 17:10 35.46224 21.81990 38131 ft 431 kts 276°
2026-04-27 17:10 35.46857 21.74654 38129 ft 431 kts 276°
2026-04-27 17:11 35.47486 21.67318 38130 ft 431 kts 276°
2026-04-27 17:11 35.48416 21.56363 38131 ft 431 kts 276°
2026-04-27 17:12 35.49339 21.45375 38133 ft 431 kts 276°
2026-04-27 17:13 35.49950 21.38039 38135 ft 431 kts 276°
2026-04-27 17:13 35.50556 21.30707 38135 ft 431 kts 276°
2026-04-27 17:14 35.51156 21.23367 38132 ft 431 kts 276°
2026-04-27 17:14 35.51832 21.16049 38131 ft 431 kts 278°
2026-04-27 17:15 35.52965 21.08818 38132 ft 431 kts 282°
2026-04-27 17:15 35.54221 21.01657 38133 ft 431 kts 282°
2026-04-27 17:16 35.55484 20.94449 38133 ft 431 kts 282°
2026-04-27 17:16 35.56744 20.87243 38131 ft 431 kts 282°
2026-04-27 17:17 35.58000 20.80030 38131 ft 431 kts 282°
2026-04-27 17:17 35.59250 20.72826 38131 ft 430 kts 281°
2026-04-27 17:18 35.61117 20.62014 38135 ft 430 kts 281°
2026-04-27 17:18 35.62146 20.56026 38134 ft 430 kts 281°
2026-04-27 17:19 35.63382 20.48817 38138 ft 430 kts 281°
2026-04-27 17:19 35.64812 20.40436 38135 ft 430 kts 281°
2026-04-27 17:20 35.65840 20.34391 38136 ft 430 kts 281°
2026-04-27 17:20 35.67061 20.27183 38137 ft 430 kts 281°
2026-04-27 17:21 35.68270 20.20017 38138 ft 430 kts 281°
2026-04-27 17:21 35.69485 20.12793 38132 ft 430 kts 281°
2026-04-27 17:22 35.70694 20.05571 38137 ft 430 kts 281°
2026-04-27 17:22 35.71899 19.98350 38139 ft 430 kts 281°
2026-04-27 17:23 35.73098 19.91133 38138 ft 430 kts 281°
2026-04-27 17:23 35.74293 19.83910 38131 ft 430 kts 281°
2026-04-27 17:24 35.75484 19.76687 38136 ft 430 kts 281°
2026-04-27 17:24 35.76671 19.69460 38132 ft 430 kts 281°
2026-04-27 17:25 35.77847 19.62270 38137 ft 430 kts 281°
2026-04-27 17:25 35.79024 19.55044 38130 ft 430 kts 281°
2026-04-27 17:26 35.80199 19.47808 38137 ft 430 kts 281°
2026-04-27 17:26 35.81369 19.40572 38140 ft 430 kts 281°
2026-04-27 17:27 35.82534 19.33329 38134 ft 430 kts 281°
2026-04-27 17:27 35.83695 19.26091 38137 ft 430 kts 281°
2026-04-27 17:28 35.84851 19.18845 38136 ft 430 kts 281°
2026-04-27 17:29 35.86213 19.07895 38140 ft 430 kts 275°
2026-04-27 17:29 35.86472 19.00561 38137 ft 431 kts 272°
2026-04-27 17:30 35.86601 18.93172 38135 ft 431 kts 272°
2026-04-27 17:30 35.86777 18.82078 38138 ft 431 kts 272°
2026-04-27 17:31 35.86887 18.74689 38138 ft 430 kts 272°
2026-04-27 17:31 35.86992 18.67296 38137 ft 431 kts 272°
2026-04-27 17:32 35.87140 18.56201 38137 ft 430 kts 272°
2026-04-27 17:33 35.87234 18.48813 38138 ft 430 kts 272°
2026-04-27 17:33 35.87323 18.41418 38142 ft 431 kts 272°
2026-04-27 17:34 35.87407 18.34018 38144 ft 431 kts 271°
2026-04-27 17:34 35.87487 18.26624 38140 ft 431 kts 271°
2026-04-27 17:35 35.87561 18.19270 38139 ft 431 kts 271°
2026-04-27 17:35 35.87632 18.11868 38139 ft 431 kts 271°
2026-04-27 17:36 35.87698 18.04459 38134 ft 431 kts 271°
2026-04-27 17:36 35.87760 17.97056 38135 ft 431 kts 271°
2026-04-27 17:37 35.87817 17.89648 38140 ft 431 kts 271°
2026-04-27 17:37 35.87869 17.82239 38142 ft 431 kts 271°
2026-04-27 17:38 35.87917 17.74836 38143 ft 431 kts 271°
2026-04-27 17:38 35.87961 17.67422 38135 ft 432 kts 271°
2026-04-27 17:39 35.88000 17.60004 38143 ft 432 kts 271°
2026-04-27 17:39 35.88035 17.52594 38145 ft 431 kts 271°
2026-04-27 17:40 35.88065 17.45187 38144 ft 431 kts 271°
2026-04-27 17:40 35.88090 17.37773 38130 ft 431 kts 271°
2026-04-27 17:41 35.88111 17.30358 38132 ft 431 kts 271°
2026-04-27 17:41 35.88128 17.22959 38132 ft 431 kts 271°
2026-04-27 17:42 35.88139 17.15596 38139 ft 430 kts 271°
2026-04-27 17:42 35.88145 17.08206 38139 ft 430 kts 271°
2026-04-27 17:43 35.88211 17.00829 38143 ft 429 kts 274°
2026-04-27 17:43 35.88752 16.93498 38134 ft 428 kts 278°
2026-04-27 17:44 35.89835 16.86277 38129 ft 427 kts 283°
2026-04-27 17:44 35.90550 16.82750 38143 ft 427 kts 284°
2026-04-27 17:45 35.91976 16.75903 38131 ft 427 kts 284°
2026-04-27 17:45 35.93460 16.68790 38132 ft 427 kts 284°
2026-04-27 17:46 35.94931 16.61731 38129 ft 427 kts 284°
2026-04-27 17:46 35.96408 16.54623 38137 ft 427 kts 284°
2026-04-27 17:47 35.97879 16.47524 38129 ft 426 kts 284°
2026-04-27 17:47 35.99347 16.40416 38131 ft 426 kts 284°
2026-04-27 17:48 36.00810 16.33309 38137 ft 426 kts 284°
2026-04-27 17:48 36.02268 16.26204 38135 ft 426 kts 284°
2026-04-27 17:49 36.03722 16.19094 38137 ft 426 kts 284°
2026-04-27 17:49 36.05160 16.12045 38140 ft 425 kts 284°
2026-04-27 17:50 36.06606 16.04929 38128 ft 425 kts 284°
2026-04-27 17:50 36.08765 15.94264 38134 ft 425 kts 283°
2026-04-27 17:51 36.10196 15.87164 38134 ft 425 kts 283°
2026-04-27 17:51 36.11625 15.80050 38131 ft 425 kts 283°
2026-04-27 17:52 36.13040 15.72983 38130 ft 425 kts 283°
2026-04-27 17:52 36.14229 15.67028 38130 ft 425 kts 283°
2026-04-27 17:53 36.15875 15.58755 38128 ft 425 kts 283°
2026-04-27 17:53 36.17285 15.51640 38126 ft 425 kts 283°
2026-04-27 17:54 36.18692 15.44520 38127 ft 425 kts 283°
2026-04-27 17:54 36.20096 15.37388 38121 ft 425 kts 283°
2026-04-27 17:55 36.21497 15.30252 38121 ft 425 kts 283°
2026-04-27 17:55 36.22883 15.23162 38125 ft 425 kts 283°
2026-04-27 17:56 36.24277 15.16012 38123 ft 426 kts 283°
2026-04-27 17:56 36.25666 15.08862 38123 ft 426 kts 283°
2026-04-27 17:57 36.27052 15.01706 38116 ft 426 kts 283°
2026-04-27 17:57 36.28432 14.94551 38123 ft 426 kts 283°
2026-04-27 17:58 36.29810 14.87384 38120 ft 427 kts 283°
2026-04-27 17:58 36.31186 14.80205 38118 ft 427 kts 283°
2026-04-27 17:59 36.32557 14.73027 38127 ft 427 kts 283°
2026-04-27 17:59 36.33917 14.65882 38122 ft 428 kts 283°
2026-04-27 18:00 36.35283 14.58680 38126 ft 428 kts 283°
2026-04-27 18:00 36.36643 14.51478 38120 ft 428 kts 283°
2026-04-27 18:01 36.38001 14.44268 38112 ft 428 kts 282°
2026-04-27 18:01 36.39353 14.37059 38116 ft 429 kts 282°
2026-04-27 18:02 36.40702 14.29842 38117 ft 429 kts 282°
2026-04-27 18:02 36.42048 14.22616 38128 ft 429 kts 282°
2026-04-27 18:03 36.43389 14.15393 38122 ft 428 kts 282°
2026-04-27 18:03 36.44727 14.08158 38121 ft 428 kts 282°
2026-04-27 18:04 36.46050 14.00976 38119 ft 429 kts 282°
2026-04-27 18:04 36.47378 13.93741 38123 ft 429 kts 282°
2026-04-27 18:05 36.48701 13.86508 38124 ft 429 kts 282°
2026-04-27 18:05 36.49839 13.79219 38124 ft 429 kts 278°
2026-04-27 18:06 36.50374 13.73084 38108 ft 429 kts 275°
2026-04-27 18:06 36.50838 13.65666 38123 ft 429 kts 275°
2026-04-27 18:07 36.51287 13.58316 38063 ft 429 kts 275°
2026-04-27 18:07 36.51511 13.54610 37769 ft 427 kts 275°
2026-04-27 18:07 36.51732 13.50923 37499 ft 424 kts 275°
2026-04-27 18:08 36.51950 13.47276 37226 ft 421 kts 275°
2026-04-27 18:08 36.52165 13.43650 36956 ft 418 kts 274°
2026-04-27 18:08 36.52378 13.40038 36701 ft 417 kts 274°
2026-04-27 18:08 36.52589 13.36434 36438 ft 417 kts 274°
2026-04-27 18:09 36.52799 13.32835 36187 ft 416 kts 274°
2026-04-27 18:09 36.53007 13.29236 35939 ft 416 kts 274°
2026-04-27 18:09 36.53214 13.25649 35691 ft 416 kts 274°
2026-04-27 18:09 36.53420 13.22053 35442 ft 416 kts 274°
2026-04-27 18:10 36.53625 13.18463 35194 ft 415 kts 274°
2026-04-27 18:10 36.53826 13.14913 34959 ft 415 kts 274°
2026-04-27 18:10 36.54028 13.11328 34719 ft 415 kts 274°
2026-04-27 18:10 36.54229 13.07746 34485 ft 414 kts 274°
2026-04-27 18:11 36.54428 13.04167 34245 ft 414 kts 273°
2026-04-27 18:11 36.54627 13.00591 34000 ft 414 kts 273°
2026-04-27 18:11 36.54824 12.97005 33724 ft 415 kts 273°
2026-04-27 18:11 36.55020 12.93415 33448 ft 416 kts 273°
2026-04-27 18:12 36.55217 12.89801 33175 ft 418 kts 273°
2026-04-27 18:12 36.55413 12.86175 32910 ft 420 kts 273°
2026-04-27 18:12 36.55610 12.82526 32638 ft 423 kts 273°
2026-04-27 18:12 36.55806 12.78866 32381 ft 425 kts 273°
2026-04-27 18:13 36.56002 12.75191 32129 ft 427 kts 273°
2026-04-27 18:13 36.56196 12.71541 31866 ft 429 kts 273°
2026-04-27 18:13 36.56391 12.67831 31609 ft 431 kts 273°
2026-04-27 18:13 36.56587 12.64093 31357 ft 432 kts 273°
2026-04-27 18:14 36.56783 12.60340 31110 ft 434 kts 273°
2026-04-27 18:14 36.56978 12.56576 30858 ft 436 kts 273°
2026-04-27 18:14 36.57172 12.52803 30603 ft 438 kts 273°
2026-04-27 18:14 36.57366 12.49005 30370 ft 439 kts 273°
2026-04-27 18:15 36.57560 12.45194 30127 ft 441 kts 273°
2026-04-27 18:15 36.57753 12.41375 29833 ft 442 kts 273°
2026-04-27 18:15 36.57945 12.37547 29552 ft 443 kts 273°
2026-04-27 18:15 36.58137 12.33701 29276 ft 443 kts 273°
2026-04-27 18:16 36.58325 12.29916 29001 ft 444 kts 273°
2026-04-27 18:16 36.58514 12.26071 28650 ft 444 kts 273°
2026-04-27 18:16 36.58704 12.22193 28148 ft 441 kts 273°
2026-04-27 18:16 36.58886 12.18447 27833 ft 438 kts 273°
2026-04-27 18:17 36.59069 12.14656 27447 ft 436 kts 273°
2026-04-27 18:17 36.59250 12.10887 26923 ft 433 kts 273°
2026-04-27 18:17 36.59427 12.07171 26457 ft 427 kts 273°
2026-04-27 18:17 36.59602 12.03479 25928 ft 424 kts 273°
2026-04-27 18:18 36.59774 11.99835 25451 ft 419 kts 273°
2026-04-27 18:18 36.59943 11.96226 24993 ft 414 kts 273°
2026-04-27 18:18 36.60109 11.92659 24559 ft 410 kts 273°
2026-04-27 18:18 36.60272 11.89132 24123 ft 405 kts 273°
2026-04-27 18:19 36.60433 11.85639 23688 ft 402 kts 273°
2026-04-27 18:19 36.60590 11.82174 23195 ft 398 kts 273°
2026-04-27 18:19 36.60743 11.78791 22746 ft 394 kts 273°
2026-04-27 18:19 36.60896 11.75393 22324 ft 389 kts 273°
2026-04-27 18:20 36.61046 11.72039 21907 ft 385 kts 273°
2026-04-27 18:20 36.61194 11.68718 21495 ft 381 kts 272°
2026-04-27 18:20 36.61340 11.65420 21095 ft 378 kts 272°
2026-04-27 18:20 36.61482 11.62157 20691 ft 375 kts 272°
2026-04-27 18:21 36.61623 11.58917 20292 ft 373 kts 272°
2026-04-27 18:21 36.61761 11.55741 19892 ft 371 kts 272°
2026-04-27 18:21 36.61954 11.52544 19497 ft 369 kts 275°
2026-04-27 18:21 36.62277 11.49376 19094 ft 367 kts 278°
2026-04-27 18:22 36.62730 11.46253 18675 ft 365 kts 281°
2026-04-27 18:22 36.63289 11.43163 18254 ft 364 kts 282°
2026-04-27 18:22 36.63861 11.40093 17807 ft 362 kts 282°
2026-04-27 18:22 36.64431 11.37048 17382 ft 359 kts 282°
2026-04-27 18:23 36.64999 11.34009 16963 ft 357 kts 282°
2026-04-27 18:23 36.65561 11.30999 16560 ft 355 kts 282°
2026-04-27 18:23 36.66119 11.28004 16151 ft 353 kts 282°
2026-04-27 18:23 36.66674 11.25022 15738 ft 352 kts 282°
2026-04-27 18:24 36.67225 11.22058 15337 ft 350 kts 282°
2026-04-27 18:24 36.67774 11.19104 14930 ft 348 kts 282°
2026-04-27 18:24 36.68318 11.16165 14528 ft 347 kts 283°
2026-04-27 18:24 36.68860 11.13236 14123 ft 346 kts 283°
2026-04-27 18:25 36.69391 11.10361 13694 ft 344 kts 283°
2026-04-27 18:25 36.69939 11.07397 13258 ft 343 kts 283°
2026-04-27 18:25 36.70466 11.04543 12826 ft 341 kts 283°
2026-04-27 18:25 36.70997 11.01660 12383 ft 340 kts 282°
2026-04-27 18:26 36.71524 10.98787 11923 ft 340 kts 282°
2026-04-27 18:26 36.72052 10.95906 11462 ft 339 kts 282°
2026-04-27 18:26 36.72577 10.93035 11037 ft 337 kts 282°
2026-04-27 18:26 36.73093 10.90211 10885 ft 325 kts 282°
2026-04-27 18:27 36.73587 10.87503 10743 ft 312 kts 282°
2026-04-27 18:27 36.74060 10.84905 10614 ft 301 kts 282°
2026-04-27 18:27 36.74515 10.82408 10502 ft 288 kts 282°
2026-04-27 18:27 36.74948 10.80025 10390 ft 276 kts 282°
2026-04-27 18:28 36.75366 10.77721 10291 ft 268 kts 282°
2026-04-27 18:28 36.75774 10.75469 10192 ft 264 kts 282°
2026-04-27 18:28 36.76277 10.73269 10017 ft 264 kts 297°
2026-04-27 18:28 36.77507 10.71549 9525 ft 270 kts 321°
2026-04-27 18:29 36.79015 10.70204 9193 ft 270 kts 324°
2026-04-27 18:29 36.80549 10.68867 8873 ft 268 kts 323°
2026-04-27 18:29 36.82061 10.67510 8558 ft 266 kts 322°
2026-04-27 18:29 36.83548 10.66138 8261 ft 264 kts 322°
2026-04-27 18:30 36.85011 10.64761 7980 ft 263 kts 321°
2026-04-27 18:30 36.86466 10.63375 7677 ft 261 kts 321°
2026-04-27 18:30 36.87902 10.62000 7400 ft 259 kts 321°
2026-04-27 18:30 36.89333 10.60624 7135 ft 259 kts 321°
2026-04-27 18:31 36.90746 10.59264 6922 ft 253 kts 321°
2026-04-27 18:31 36.92132 10.57936 6675 ft 249 kts 321°
2026-04-27 18:31 36.93499 10.56628 6445 ft 245 kts 321°
2026-04-27 18:31 36.94847 10.55337 6196 ft 242 kts 321°
2026-04-27 18:32 36.96170 10.54065 5932 ft 239 kts 321°
2026-04-27 18:32 36.97479 10.52802 5714 ft 237 kts 321°
2026-04-27 18:32 36.98788 10.51535 5517 ft 237 kts 321°
2026-04-27 18:32 37.00033 10.50185 5313 ft 237 kts 315°
2026-04-27 18:33 37.01197 10.48731 5071 ft 236 kts 314°
2026-04-27 18:33 37.02341 10.47255 4828 ft 236 kts 313°
2026-04-27 18:33 37.03462 10.45797 4569 ft 235 kts 313°
2026-04-27 18:33 37.04596 10.44313 4268 ft 236 kts 313°
2026-04-27 18:34 37.05614 10.42708 3907 ft 237 kts 291°
2026-04-27 18:34 37.05734 10.40712 3686 ft 230 kts 256°
2026-04-27 18:34 37.05298 10.38815 3519 ft 224 kts 253°
2026-04-27 18:34 37.04882 10.36952 3322 ft 220 kts 255°
2026-04-27 18:35 37.04509 10.35115 3111 ft 216 kts 256°
2026-04-27 18:35 37.04169 10.33310 2958 ft 208 kts 256°
2026-04-27 18:35 37.03847 10.31540 2768 ft 208 kts 256°
2026-04-27 18:35 37.03531 10.29769 2579 ft 208 kts 256°
2026-04-27 18:36 37.02978 10.28147 2443 ft 206 kts 228°
2026-04-27 18:36 37.01791 10.27195 2320 ft 203 kts 198°
2026-04-27 18:36 37.00444 10.26773 2189 ft 193 kts 189°
2026-04-27 18:36 36.99157 10.26489 2047 ft 184 kts 188°
2026-04-27 18:37 36.97908 10.26196 2009 ft 179 kts 189°
2026-04-27 18:37 36.96738 10.25891 1973 ft 168 kts 190°
2026-04-27 18:37 36.95603 10.25581 1806 ft 165 kts 190°
2026-04-27 18:37 36.94516 10.25278 1509 ft 156 kts 190°
2026-04-27 18:38 36.93429 10.24977 1267 ft 162 kts 190°
2026-04-27 18:38 36.92322 10.24669 1143 ft 163 kts 190°
2026-04-27 18:38 36.91211 10.24355 985 ft 164 kts 190°
2026-04-27 18:38 36.90099 10.24061 763 ft 162 kts 189°
2026-04-27 18:39 36.89003 10.23769 541 ft 164 kts 189°
2026-04-27 18:39 36.87888 10.23458 320 ft 164 kts 190°
2026-04-27 18:39 36.86776 10.23146 102 ft 164 kts 189°
2026-04-27 18:39 36.85750 10.22877 39 ft 121 kts 193°
2026-04-27 18:40 36.85172 10.22720 43 ft 63 kts 192°
2026-04-27 18:40 36.84770 10.22609 40 ft 47 kts 192°
2026-04-27 18:40 36.84559 10.22507 37 ft 22 kts 219°
2026-04-27 18:40 36.84501 10.22416 38 ft 11 kts 244°
2026-04-27 18:41 36.84490 10.22369 38 ft 3 kts 257°
2026-04-27 18:41 36.84488 10.22360 38 ft 2 kts 259°
2026-04-27 18:41 36.84484 10.22325 39 ft 6 kts 263°
2026-04-27 18:41 36.84484 10.22265 39 ft 2 kts 277°
2026-04-27 18:42 36.84488 10.22232 39 ft 6 kts 278°
2026-04-27 18:42 36.84491 10.22202 39 ft 0 kts 282°
2026-04-27 18:42 36.84495 10.22178 39 ft 5 kts 282°
2026-04-27 18:42 36.84503 10.22137 39 ft 2 kts 290°
2026-04-27 18:43 36.84518 10.22111 39 ft 5 kts 316°
2026-04-27 18:43 36.84539 10.22093 39 ft 1 kts 330°
2026-04-27 18:43 36.84558 10.22080 39 ft 3 kts 330°
2026-04-27 18:43 36.84581 10.22052 39 ft 6 kts 300°
2026-04-27 18:44 36.84586 10.22040 39 ft 2 kts 300°
2026-04-27 18:44 36.84596 10.22019 39 ft 0 kts 300°